Regional Weather Roundup
Issued by NWS

Home | Current Version | Previous Version | Text Only | Print | Product List | Glossary Off
Versions: 1 2 3 4 5 6 7 8 9 10 11 12 13 14 15 16 17 18 19 20 21 22 23 24 25 26 27 28 29 30 31 32 33 34 35 36 37 38 39 40 41 42 43 44 45 46 47 48 49 50

000
ASUS43 KLSX 010157
RWRMO

WEATHER SUMMARY FOR MISSOURI
NATIONAL WEATHER SERVICE SPRINGFIELD MO
900 PM CDT SAT APR 30 2016

NOTE: "FAIR" INDICATES FEW OR NO CLOUDS BELOW 12,000 FEET WITH NO
       SIGNIFICANT WEATHER AND/OR OBSTRUCTIONS TO VISIBILITY.
       CURRENT SKY AND/OR WEATHER CONDITIONS ARE NOT AVAILABLE FOR
       CHILLICOTHE AND FARMINGTON.

MOZ001>031-035>038-043-044-053-054-010300-
...NORTHERN AND WESTERN MISSOURI...

CITY           SKY/WX    TMP DP  RH WIND       PRES   REMARKS
KANSAS CTY INT MOCLDY    59  48  67 N3        29.80R
LEE`S SUMMIT   CLEAR     59  49  69 SW5       29.81R
ST JOSEPH      PTCLDY    57  49  74 CALM      29.80R
CHILLICOTHE      N/A     58  51  78 CALM      29.81R

$$
MOZ066>068-077>081-088>096-101>105-010300-
...SOUTHWEST MISSOURI...

CITY           SKY/WX    TMP DP  RH WIND       PRES   REMARKS
SPRINGFIELD    CLEAR     63  52  67 NW7       29.82R
JOPLIN         PTCLDY    58  52  80 W6        29.84R
BRANSON        PTCLDY    63  59  88 CALM      29.83R

$$
MOZ032>034-039>042-045>050-055>058-069>072-010300-
...CENTRAL MISSOURI...

CITY           SKY/WX    TMP DP  RH WIND       PRES   REMARKS
COLUMBIA       NOT AVBL
JEFFERSON CITY CLEAR     65  55  70 W3        29.79R
ROLLA          CLEAR     62  56  80 W5        29.79R
SEDALIA        CLEAR     65  52  62 W3        29.80R
WARRENSBURG    PTCLDY    61  48  63 SW7       29.80R

$$
MOZ051-052-059>065-010300-
...EAST CENTRAL MISSOURI...

CITY           SKY/WX    TMP DP  RH WIND       PRES   REMARKS
ST LOUIS INTL  MOCLDY    62  53  72 SE8       29.80R

$$
MOZ072>076-082>087-097>100-106>115-010300-
...SOUTH CENTRAL AND SOUTHEAST MISSOURI...

CITY           SKY/WX    TMP DP  RH WIND       PRES   REMARKS
CAPE GIRARDEAU CLOUDY    66  60  81 S7        29.81R
POPLAR BLUFF   PTCLDY    66  63  90 SE5       29.80R
WEST PLAINS    HVY RAIN  60  56  86 CALM      29.81R FOG

$$



USA.gov is the U.S. government's official web portal to all federal, state and local government web resources and services.